Year,Month,Day,Hour,Minute,Value (Times are PST for temperature in C)
2015,05,24,00,00,12.30
2015,05,24,00,01,12.30
2015,05,24,00,02,12.30
2015,05,24,00,03,12.20
2015,05,24,00,04,12.20
2015,05,24,00,05,12.20
2015,05,24,00,06,12.20
2015,05,24,00,07,12.10
2015,05,24,00,08,12.10
2015,05,24,00,09,12.10
2015,05,24,00,10,12.10
2015,05,24,00,11,12.00
2015,05,24,00,12,12.00
2015,05,24,00,13,12.00
2015,05,24,00,14,12.00
2015,05,24,00,15,12.00
2015,05,24,00,16,11.90
2015,05,24,00,17,11.90
2015,05,24,00,18,11.90
2015,05,24,00,19,11.90
2015,05,24,00,20,11.90
2015,05,24,00,21,11.90
2015,05,24,00,22,11.90
2015,05,24,00,23,11.90
2015,05,24,00,24,11.90
2015,05,24,00,25,11.90
2015,05,24,00,26,11.90
2015,05,24,00,27,11.90
2015,05,24,00,28,11.90
2015,05,24,00,29,11.90
2015,05,24,00,30,11.90
2015,05,24,00,31,11.90
2015,05,24,00,32,11.90
2015,05,24,00,33,11.90
2015,05,24,00,34,11.90
2015,05,24,00,35,11.90
2015,05,24,00,36,11.90
2015,05,24,00,37,11.90
2015,05,24,00,38,11.90
2015,05,24,00,39,11.90
2015,05,24,00,40,11.90
2015,05,24,00,41,11.90
2015,05,24,00,42,11.80
2015,05,24,00,43,11.80
2015,05,24,00,44,11.80
2015,05,24,00,45,11.80
2015,05,24,00,46,11.80
2015,05,24,00,47,11.80
2015,05,24,00,48,11.80
2015,05,24,00,49,11.80
2015,05,24,00,50,11.80
2015,05,24,00,51,11.80
2015,05,24,00,52,11.80
2015,05,24,00,53,11.70
2015,05,24,00,54,11.70
2015,05,24,00,55,11.70
2015,05,24,00,56,11.70
2015,05,24,00,57,11.70
2015,05,24,00,58,11.70
2015,05,24,00,59,11.70
2015,05,24,01,00,11.60
2015,05,24,01,01,11.60
2015,05,24,01,02,11.60
2015,05,24,01,03,11.60
2015,05,24,01,04,11.60
2015,05,24,01,05,11.60
2015,05,24,01,06,11.60
2015,05,24,01,07,11.50
2015,05,24,01,08,11.50
2015,05,24,01,09,11.50
2015,05,24,01,10,11.40
2015,05,24,01,11,11.40
2015,05,24,01,12,11.40
2015,05,24,01,13,11.40
2015,05,24,01,14,11.40
2015,05,24,01,15,11.30
2015,05,24,01,16,11.30
2015,05,24,01,17,11.30
2015,05,24,01,18,11.30
2015,05,24,01,19,11.30
2015,05,24,01,20,11.30
2015,05,24,01,21,11.30
2015,05,24,01,22,11.20
2015,05,24,01,23,11.20
2015,05,24,01,24,11.20
2015,05,24,01,25,11.20
2015,05,24,01,26,11.20
2015,05,24,01,27,11.20
2015,05,24,01,28,11.20
2015,05,24,01,29,11.20
2015,05,24,01,30,11.20
2015,05,24,01,31,11.20
2015,05,24,01,32,11.20
2015,05,24,01,33,11.20
2015,05,24,01,34,11.20
2015,05,24,01,35,11.20
2015,05,24,01,36,11.20
2015,05,24,01,37,11.20
2015,05,24,01,38,11.20
2015,05,24,01,39,11.20
2015,05,24,01,40,11.20
2015,05,24,01,41,11.20
2015,05,24,01,42,11.20
2015,05,24,01,43,11.20
2015,05,24,01,44,11.20
2015,05,24,01,45,11.20
2015,05,24,01,46,11.20
2015,05,24,01,47,11.20
2015,05,24,01,48,11.20
2015,05,24,01,49,11.20
2015,05,24,01,50,11.20
2015,05,24,01,51,11.10
2015,05,24,01,52,11.10
2015,05,24,01,53,11.10
2015,05,24,01,54,11.10
2015,05,24,01,55,11.10
2015,05,24,01,56,11.10
2015,05,24,01,57,11.10
2015,05,24,01,58,11.20
2015,05,24,01,59,11.20
2015,05,24,02,00,11.20
2015,05,24,02,01,11.20
2015,05,24,02,02,11.20
2015,05,24,02,03,11.20
2015,05,24,02,04,11.20
2015,05,24,02,05,11.20
2015,05,24,02,06,11.20
2015,05,24,02,07,11.20
2015,05,24,02,08,11.20
2015,05,24,02,09,11.20
2015,05,24,02,10,11.20
2015,05,24,02,11,11.20
2015,05,24,02,12,11.20
2015,05,24,02,13,11.20
2015,05,24,02,14,11.20
2015,05,24,02,15,11.20
2015,05,24,02,16,11.20
2015,05,24,02,17,11.20
2015,05,24,02,18,11.20
2015,05,24,02,19,11.20
2015,05,24,02,20,11.20
2015,05,24,02,21,11.20
2015,05,24,02,22,11.20
2015,05,24,02,23,11.20
2015,05,24,02,24,11.20
2015,05,24,02,25,11.20
2015,05,24,02,26,11.20
2015,05,24,02,27,11.20
2015,05,24,02,28,11.20
2015,05,24,02,29,11.20
2015,05,24,02,30,11.20
2015,05,24,02,31,11.20
2015,05,24,02,32,11.20
2015,05,24,02,33,11.20
2015,05,24,02,34,11.20
2015,05,24,02,35,11.20
2015,05,24,02,36,11.20
2015,05,24,02,37,11.20
2015,05,24,02,38,11.30
2015,05,24,02,39,11.30
2015,05,24,02,40,11.30
2015,05,24,02,41,11.30
2015,05,24,02,42,11.30
2015,05,24,02,43,11.30
2015,05,24,02,44,11.30
2015,05,24,02,45,11.30
2015,05,24,02,46,11.30
2015,05,24,02,47,11.30
2015,05,24,02,48,11.30
2015,05,24,02,49,11.30
2015,05,24,02,50,11.30
2015,05,24,02,51,11.40
2015,05,24,02,52,11.40
2015,05,24,02,53,11.40
2015,05,24,02,54,11.40
2015,05,24,02,55,11.40
2015,05,24,02,56,11.40
2015,05,24,02,57,11.40
2015,05,24,02,58,11.40
2015,05,24,02,59,11.40
2015,05,24,03,00,11.40
2015,05,24,03,01,11.40
2015,05,24,03,02,11.40
2015,05,24,03,06,11.50
2015,05,24,03,07,11.50
2015,05,24,03,08,11.50
2015,05,24,03,09,11.50
2015,05,24,03,10,11.50
2015,05,24,03,11,11.50
2015,05,24,03,12,11.50
2015,05,24,03,13,11.50
2015,05,24,03,14,11.60
2015,05,24,03,15,11.60
2015,05,24,03,16,11.60
2015,05,24,03,17,11.60
2015,05,24,03,18,11.60
2015,05,24,03,19,11.60
2015,05,24,03,20,11.60
2015,05,24,03,21,11.70
2015,05,24,03,22,11.70
2015,05,24,03,23,11.70
2015,05,24,03,24,11.70
2015,05,24,03,25,11.80
2015,05,24,03,26,11.80
2015,05,24,03,27,11.80
2015,05,24,03,28,11.80
2015,05,24,03,29,11.80
2015,05,24,03,30,11.80
2015,05,24,03,31,11.90
2015,05,24,03,32,11.90
2015,05,24,03,33,11.90
2015,05,24,03,34,11.90
2015,05,24,03,35,11.90
2015,05,24,03,36,11.90
2015,05,24,03,37,11.90
2015,05,24,03,38,11.90
2015,05,24,03,39,11.90
2015,05,24,03,40,12.00
2015,05,24,03,41,12.00
2015,05,24,03,42,12.00
2015,05,24,03,43,12.00
2015,05,24,03,44,12.00
2015,05,24,03,45,12.00
2015,05,24,03,46,12.00
2015,05,24,03,47,12.00
2015,05,24,03,48,12.00
2015,05,24,03,49,12.10
2015,05,24,03,50,12.10
2015,05,24,03,51,12.10
2015,05,24,03,52,12.10
2015,05,24,03,53,12.10
2015,05,24,03,54,12.10
2015,05,24,03,55,12.10
2015,05,24,03,56,12.10
2015,05,24,03,57,12.10
2015,05,24,03,58,12.10
2015,05,24,03,59,12.10
2015,05,24,04,00,12.10
2015,05,24,04,01,12.10
2015,05,24,04,02,12.10
2015,05,24,04,03,12.10
2015,05,24,04,04,12.10
2015,05,24,04,05,12.10
2015,05,24,04,06,12.10
2015,05,24,04,07,12.10
2015,05,24,04,08,12.10
2015,05,24,04,09,12.10
2015,05,24,04,10,12.10
2015,05,24,04,11,12.10
2015,05,24,04,12,12.10
2015,05,24,04,13,12.10
2015,05,24,04,14,12.10
2015,05,24,04,15,12.10
2015,05,24,04,16,12.10
2015,05,24,04,17,12.00
2015,05,24,04,18,12.00
2015,05,24,04,19,12.10
2015,05,24,04,20,12.10
2015,05,24,04,21,12.10
2015,05,24,04,22,12.10
2015,05,24,04,23,12.10
2015,05,24,04,24,12.10
2015,05,24,04,25,12.10
2015,05,24,04,26,12.10
2015,05,24,04,27,12.10
2015,05,24,04,28,12.10
2015,05,24,04,29,12.10
2015,05,24,04,30,12.10
2015,05,24,04,31,12.10
2015,05,24,04,32,12.10
2015,05,24,04,33,12.10
2015,05,24,04,34,12.10
2015,05,24,04,35,12.10
2015,05,24,04,36,12.10
2015,05,24,04,37,12.10
2015,05,24,04,38,12.10
2015,05,24,04,39,12.10
2015,05,24,04,40,12.10
2015,05,24,04,41,12.10
2015,05,24,04,42,12.10
2015,05,24,04,43,12.10
2015,05,24,04,44,12.10
2015,05,24,04,45,12.10
2015,05,24,04,46,12.10
2015,05,24,04,47,12.00
2015,05,24,04,48,12.10
2015,05,24,04,49,12.00
2015,05,24,04,50,12.00
2015,05,24,04,51,12.00
2015,05,24,04,52,12.10
2015,05,24,04,53,12.10
2015,05,24,04,54,12.10
2015,05,24,04,55,12.10
2015,05,24,04,56,12.10
2015,05,24,04,57,12.10
2015,05,24,04,58,12.10
2015,05,24,04,59,12.10
2015,05,24,05,00,12.10
2015,05,24,05,01,12.10
2015,05,24,05,02,12.10
2015,05,24,05,03,12.10
2015,05,24,05,04,12.10
2015,05,24,05,05,12.10
2015,05,24,05,06,12.10
2015,05,24,05,07,12.10
2015,05,24,05,08,12.10
2015,05,24,05,09,12.10
2015,05,24,05,10,12.10
2015,05,24,05,11,12.10
2015,05,24,05,12,12.10
2015,05,24,05,13,12.10
2015,05,24,05,14,12.10
2015,05,24,05,15,12.10
2015,05,24,05,16,12.10
2015,05,24,05,17,12.10
2015,05,24,05,18,12.10
2015,05,24,05,19,12.10
2015,05,24,05,20,12.10
2015,05,24,05,21,12.10
2015,05,24,05,22,12.10
2015,05,24,05,23,12.10
2015,05,24,05,24,12.10
2015,05,24,05,25,12.10
2015,05,24,05,26,12.10
2015,05,24,05,27,12.10
2015,05,24,05,28,12.10
2015,05,24,05,29,12.10
2015,05,24,05,30,12.10
2015,05,24,05,31,12.10
2015,05,24,05,32,12.10
2015,05,24,05,33,12.10
2015,05,24,05,34,12.10
2015,05,24,05,35,12.10
2015,05,24,05,36,12.10
2015,05,24,05,37,12.10
2015,05,24,05,38,12.10
2015,05,24,05,39,12.10
2015,05,24,05,40,12.00
2015,05,24,05,41,12.00
2015,05,24,05,42,12.00
2015,05,24,05,43,12.00
2015,05,24,05,44,12.00
2015,05,24,05,45,12.00
2015,05,24,05,46,12.00
2015,05,24,05,47,12.00
2015,05,24,05,48,12.00
2015,05,24,05,49,12.00
2015,05,24,05,50,12.00
2015,05,24,05,51,12.00
2015,05,24,05,52,11.90
2015,05,24,05,53,12.00
2015,05,24,05,54,11.90
2015,05,24,05,55,11.90
2015,05,24,05,56,11.90
2015,05,24,05,57,11.90
2015,05,24,05,58,11.90
2015,05,24,05,59,11.90
2015,05,24,06,00,11.90
2015,05,24,06,01,11.90
2015,05,24,06,02,11.80
2015,05,24,06,03,11.80
2015,05,24,06,04,11.80
2015,05,24,06,05,11.80
2015,05,24,06,06,11.80
2015,05,24,06,07,11.80
2015,05,24,06,08,11.80
2015,05,24,06,09,11.80
2015,05,24,06,10,11.80
2015,05,24,06,11,11.80
2015,05,24,06,12,11.80
2015,05,24,06,13,11.80
2015,05,24,06,14,11.80
2015,05,24,06,15,11.80
2015,05,24,06,16,11.80
2015,05,24,06,17,11.80
2015,05,24,06,18,11.80
2015,05,24,06,19,11.80
2015,05,24,06,20,11.80
2015,05,24,06,21,11.80
2015,05,24,06,22,11.80
2015,05,24,06,23,11.80
2015,05,24,06,24,11.80
2015,05,24,06,25,11.80
2015,05,24,06,26,11.80
2015,05,24,06,27,11.80
2015,05,24,06,28,11.80
2015,05,24,06,29,11.80
2015,05,24,06,30,11.80
2015,05,24,06,31,11.80
2015,05,24,06,32,11.80
2015,05,24,06,33,11.80
2015,05,24,06,34,11.80
2015,05,24,06,35,11.80
2015,05,24,06,36,11.80
2015,05,24,06,37,11.80
2015,05,24,06,38,11.80
2015,05,24,06,39,11.80
2015,05,24,06,40,11.80
2015,05,24,06,41,11.80
2015,05,24,06,42,11.80
2015,05,24,06,43,11.80
2015,05,24,06,44,11.80
2015,05,24,06,45,11.80
2015,05,24,06,46,11.80
2015,05,24,06,47,11.80
2015,05,24,06,48,11.80
2015,05,24,06,49,11.80
2015,05,24,06,50,11.90
2015,05,24,06,51,11.90
2015,05,24,06,52,11.90
2015,05,24,06,53,11.90
2015,05,24,06,54,11.90
2015,05,24,06,55,11.90
2015,05,24,06,56,11.90
2015,05,24,06,57,11.90
2015,05,24,06,58,11.90
2015,05,24,06,59,11.90
2015,05,24,07,00,11.90
2015,05,24,07,01,11.90
2015,05,24,07,02,11.90
2015,05,24,07,03,11.90
2015,05,24,07,04,11.90
2015,05,24,07,05,11.90
2015,05,24,07,06,11.90
2015,05,24,07,07,11.90
2015,05,24,07,08,11.90
2015,05,24,07,09,11.90
2015,05,24,07,10,11.90
2015,05,24,07,11,11.90
2015,05,24,07,12,11.90
2015,05,24,07,13,11.90
2015,05,24,07,14,11.90
2015,05,24,07,15,11.90
2015,05,24,07,16,12.00
2015,05,24,07,17,12.00
2015,05,24,07,18,12.00
2015,05,24,07,19,12.10
2015,05,24,07,20,12.10
2015,05,24,07,21,12.10
2015,05,24,07,22,12.10
2015,05,24,07,23,12.10
2015,05,24,07,24,12.10
2015,05,24,07,25,12.10
2015,05,24,07,26,12.20
2015,05,24,07,27,12.20
2015,05,24,07,28,12.20
2015,05,24,07,29,12.20
2015,05,24,07,30,12.20
2015,05,24,07,31,12.20
2015,05,24,07,32,12.10
2015,05,24,07,33,12.10
2015,05,24,07,34,12.10
2015,05,24,07,35,12.10
2015,05,24,07,36,12.10
2015,05,24,07,37,12.10
2015,05,24,07,38,12.10
2015,05,24,07,39,12.20
2015,05,24,07,40,12.20
2015,05,24,07,41,12.20
2015,05,24,07,42,12.20
2015,05,24,07,43,12.20
2015,05,24,07,44,12.20
2015,05,24,07,45,12.20
2015,05,24,07,46,12.20
2015,05,24,07,47,12.20
2015,05,24,07,48,12.20
2015,05,24,07,49,12.20
2015,05,24,07,50,12.20
2015,05,24,07,51,12.20
2015,05,24,07,52,12.20
2015,05,24,07,53,12.20
2015,05,24,07,54,12.20
2015,05,24,07,55,12.20
2015,05,24,07,56,12.20
2015,05,24,07,57,12.20
2015,05,24,07,58,12.20
2015,05,24,07,59,12.20
2015,05,24,08,00,12.20
2015,05,24,08,01,12.20
2015,05,24,08,02,12.20
2015,05,24,08,03,12.20
2015,05,24,08,04,12.20
2015,05,24,08,05,12.20
2015,05,24,08,06,12.20
2015,05,24,08,07,12.20
2015,05,24,08,08,12.20
2015,05,24,08,09,12.20
2015,05,24,08,10,12.20
2015,05,24,08,11,12.20
2015,05,24,08,12,12.20
2015,05,24,08,13,12.20
2015,05,24,08,14,12.20
2015,05,24,08,15,12.20
2015,05,24,08,16,12.20
2015,05,24,08,17,12.20
2015,05,24,08,18,12.20
2015,05,24,08,19,12.20
2015,05,24,08,20,12.20
2015,05,24,08,21,12.20
2015,05,24,08,22,12.20
2015,05,24,08,23,12.20
2015,05,24,08,24,12.20
2015,05,24,08,25,12.20
2015,05,24,08,26,12.30
2015,05,24,08,27,12.20
2015,05,24,08,28,12.20
2015,05,24,08,29,12.30
2015,05,24,08,30,12.30
2015,05,24,08,31,12.30
2015,05,24,08,32,12.30
2015,05,24,08,33,12.30
2015,05,24,08,34,12.30
2015,05,24,08,35,12.30
2015,05,24,08,36,12.30
2015,05,24,08,37,12.30
2015,05,24,08,38,12.30
2015,05,24,08,39,12.40
2015,05,24,08,40,12.40
2015,05,24,08,41,12.40
2015,05,24,08,42,12.40
2015,05,24,08,43,12.40
2015,05,24,08,44,12.40
2015,05,24,08,45,12.40
2015,05,24,08,46,12.40
2015,05,24,08,47,12.40
2015,05,24,08,48,12.40
2015,05,24,08,49,12.40
2015,05,24,08,50,12.40
2015,05,24,08,51,12.40
2015,05,24,08,52,12.40
2015,05,24,08,53,12.40
2015,05,24,08,54,12.40
2015,05,24,08,55,12.40
2015,05,24,08,56,12.40
2015,05,24,08,57,12.40
2015,05,24,08,58,12.40
2015,05,24,08,59,12.40
2015,05,24,09,00,12.40
2015,05,24,09,01,12.40
2015,05,24,09,02,12.40
2015,05,24,09,03,12.40
2015,05,24,09,04,12.40
2015,05,24,09,05,12.40
2015,05,24,09,06,12.40
2015,05,24,09,07,12.40
2015,05,24,09,08,12.50
2015,05,24,09,09,12.50
2015,05,24,09,10,12.50
2015,05,24,09,11,12.50
2015,05,24,09,12,12.50
2015,05,24,09,13,12.60
2015,05,24,09,14,12.60
2015,05,24,09,15,12.60
2015,05,24,09,16,12.60
2015,05,24,09,17,12.60
2015,05,24,09,18,12.60
2015,05,24,09,19,12.70
2015,05,24,09,20,12.70
2015,05,24,09,21,12.70
2015,05,24,09,22,12.70
2015,05,24,09,23,12.70
2015,05,24,09,24,12.70
2015,05,24,09,25,12.70
2015,05,24,09,26,12.70
2015,05,24,09,27,12.70
2015,05,24,09,28,12.70
2015,05,24,09,29,12.70
2015,05,24,09,30,12.70
2015,05,24,09,31,12.70
2015,05,24,09,32,12.70
2015,05,24,09,33,12.70
2015,05,24,09,34,12.70
2015,05,24,09,35,12.70
2015,05,24,09,36,12.80
2015,05,24,09,37,12.80
2015,05,24,09,38,12.80
2015,05,24,09,39,12.80
2015,05,24,09,40,12.80
2015,05,24,09,41,12.80
2015,05,24,09,42,12.80
2015,05,24,09,43,12.90
2015,05,24,09,44,12.90
2015,05,24,09,45,12.90
2015,05,24,09,46,12.90
2015,05,24,09,47,13.00
2015,05,24,09,48,13.00
2015,05,24,09,49,13.10
2015,05,24,09,50,13.10
2015,05,24,09,51,13.10
2015,05,24,09,52,13.10
2015,05,24,09,53,13.10
2015,05,24,09,54,13.10
2015,05,24,09,55,13.10
2015,05,24,09,56,13.20
2015,05,24,09,57,13.20
2015,05,24,09,58,13.20
2015,05,24,09,59,13.20
2015,05,24,10,00,13.30
2015,05,24,10,01,13.30
2015,05,24,10,02,13.40
2015,05,24,10,03,13.40
2015,05,24,10,04,13.50
2015,05,24,10,05,13.50
2015,05,24,10,06,13.50
2015,05,24,10,07,13.50
2015,05,24,10,08,13.50
2015,05,24,10,09,13.50
2015,05,24,10,10,13.60
2015,05,24,10,11,13.60
2015,05,24,10,12,13.70
2015,05,24,10,13,13.80
2015,05,24,10,14,13.80
2015,05,24,10,15,13.80
2015,05,24,10,16,13.80
2015,05,24,10,17,13.80
2015,05,24,10,18,13.90
2015,05,24,10,19,13.90
2015,05,24,10,20,13.80
2015,05,24,10,21,13.80
2015,05,24,10,22,13.70
2015,05,24,10,23,13.70
2015,05,24,10,24,13.70
2015,05,24,10,25,13.60
2015,05,24,10,26,13.60
2015,05,24,10,27,13.60
2015,05,24,10,28,13.60
2015,05,24,10,29,13.70
2015,05,24,10,30,13.70
2015,05,24,10,31,13.70
2015,05,24,10,32,13.70
2015,05,24,10,33,13.70
2015,05,24,10,34,13.80
2015,05,24,10,35,13.80
2015,05,24,10,36,13.80
2015,05,24,10,37,13.80
2015,05,24,10,38,13.80
2015,05,24,10,39,13.80
2015,05,24,10,40,13.80
2015,05,24,10,41,13.90
2015,05,24,10,42,13.90
2015,05,24,10,43,13.90
2015,05,24,10,44,14.00
2015,05,24,10,45,14.00
2015,05,24,10,46,14.10
2015,05,24,10,47,14.10
2015,05,24,10,48,14.10
2015,05,24,10,49,14.20
2015,05,24,10,50,14.20
2015,05,24,10,51,14.20
2015,05,24,10,52,14.20
2015,05,24,10,53,14.30
2015,05,24,10,54,14.30
2015,05,24,10,55,14.30
2015,05,24,10,56,14.40
2015,05,24,10,57,14.40
2015,05,24,10,58,14.40
2015,05,24,10,59,14.40
2015,05,24,11,00,14.50
2015,05,24,11,01,14.50
2015,05,24,11,02,14.60
2015,05,24,11,03,14.60
2015,05,24,11,04,14.60
2015,05,24,11,05,14.60
2015,05,24,11,06,14.60
2015,05,24,11,07,14.60
2015,05,24,11,08,14.50
2015,05,24,11,09,14.50
2015,05,24,11,10,14.50
2015,05,24,11,11,14.50
2015,05,24,11,12,14.40
2015,05,24,11,13,14.40
2015,05,24,11,14,14.40
2015,05,24,11,15,14.40
2015,05,24,11,16,14.40
2015,05,24,11,17,14.40
2015,05,24,11,18,14.40
2015,05,24,11,19,14.40
2015,05,24,11,20,14.50
2015,05,24,11,21,14.50
2015,05,24,11,22,14.50
2015,05,24,11,23,14.50
2015,05,24,11,24,14.60
2015,05,24,11,25,14.60
2015,05,24,11,26,14.60
2015,05,24,11,27,14.60
2015,05,24,11,28,14.70
2015,05,24,11,29,14.70
2015,05,24,11,30,14.70
2015,05,24,11,31,14.70
2015,05,24,11,32,14.70
2015,05,24,11,33,14.80
2015,05,24,11,34,14.80
2015,05,24,11,35,14.80
2015,05,24,11,36,14.80
2015,05,24,11,37,14.80
2015,05,24,11,38,14.90
2015,05,24,11,39,14.90
2015,05,24,11,40,14.90
2015,05,24,11,41,15.00
2015,05,24,11,42,15.10
2015,05,24,11,43,15.10
2015,05,24,11,44,15.20
2015,05,24,11,45,15.20
2015,05,24,11,46,15.20
2015,05,24,11,47,15.30
2015,05,24,11,48,15.30
2015,05,24,11,49,15.30
2015,05,24,11,50,15.30
2015,05,24,11,51,15.40
2015,05,24,11,52,15.40
2015,05,24,11,53,15.40
2015,05,24,11,54,15.40
2015,05,24,11,55,15.40
2015,05,24,11,56,15.40
2015,05,24,11,57,15.40
2015,05,24,11,58,15.40
2015,05,24,11,59,15.40
2015,05,24,12,00,15.50
2015,05,24,12,01,15.60
2015,05,24,12,02,15.60
2015,05,24,12,03,15.60
2015,05,24,12,04,15.50
2015,05,24,12,05,15.50
2015,05,24,12,06,15.50
2015,05,24,12,07,15.60
2015,05,24,12,08,15.70
2015,05,24,12,09,15.70
2015,05,24,12,10,15.80
2015,05,24,12,11,15.80
2015,05,24,12,12,15.90
2015,05,24,12,13,15.90
2015,05,24,12,14,15.90
2015,05,24,12,15,15.90
2015,05,24,12,16,16.00
2015,05,24,12,17,16.10
2015,05,24,12,18,16.20
2015,05,24,12,19,16.20
2015,05,24,12,20,16.30
2015,05,24,12,21,16.40
2015,05,24,12,22,16.40
2015,05,24,12,23,16.40
2015,05,24,12,24,16.40
2015,05,24,12,25,16.40
2015,05,24,12,26,16.40
2015,05,24,12,27,16.40
2015,05,24,12,28,16.50
2015,05,24,12,29,16.60
2015,05,24,12,30,16.60
2015,05,24,12,31,16.60
2015,05,24,12,32,16.60
2015,05,24,12,33,16.60
2015,05,24,12,34,16.70
2015,05,24,12,35,16.70
2015,05,24,12,36,16.80
2015,05,24,12,37,16.80
2015,05,24,12,38,16.80
2015,05,24,12,39,16.80
2015,05,24,12,40,16.90
2015,05,24,12,41,16.90
2015,05,24,12,42,17.00
2015,05,24,12,43,17.10
2015,05,24,12,44,17.10
2015,05,24,12,45,17.10
2015,05,24,12,46,17.10
2015,05,24,12,47,17.10
2015,05,24,12,48,17.10
2015,05,24,12,49,17.20
2015,05,24,12,50,17.30
2015,05,24,12,51,17.30
2015,05,24,12,52,17.30
2015,05,24,12,53,17.40
2015,05,24,12,54,17.40
2015,05,24,12,55,17.50
2015,05,24,12,56,17.50
2015,05,24,12,57,17.60
2015,05,24,12,58,17.60
2015,05,24,12,59,17.60
2015,05,24,13,00,17.50
2015,05,24,13,01,17.50
2015,05,24,13,02,17.50
2015,05,24,13,03,17.50
2015,05,24,13,04,17.50
2015,05,24,13,05,17.50
2015,05,24,13,06,17.60
2015,05,24,13,07,17.60
2015,05,24,13,08,17.70
2015,05,24,13,09,17.80
2015,05,24,13,10,17.90
2015,05,24,13,11,17.90
2015,05,24,13,12,18.00
2015,05,24,13,13,18.00
2015,05,24,13,14,18.00
2015,05,24,13,15,18.00
2015,05,24,13,16,18.10
2015,05,24,13,17,18.10
2015,05,24,13,18,18.20
2015,05,24,13,19,18.20
2015,05,24,13,20,18.20
2015,05,24,13,21,18.20
2015,05,24,13,22,18.20
2015,05,24,13,23,18.30
2015,05,24,13,24,18.40
2015,05,24,13,25,18.50
2015,05,24,13,26,18.70
2015,05,24,13,27,18.70
2015,05,24,13,28,18.80
2015,05,24,13,29,18.80
2015,05,24,13,30,18.80
2015,05,24,13,31,18.70
2015,05,24,13,32,18.70
2015,05,24,13,33,18.60
2015,05,24,13,34,18.60
2015,05,24,13,35,18.60
2015,05,24,13,36,18.60
2015,05,24,13,37,18.60
2015,05,24,13,38,18.70
2015,05,24,13,39,18.80
2015,05,24,13,40,19.00
2015,05,24,13,41,19.20
2015,05,24,13,42,19.20
2015,05,24,13,43,19.20
2015,05,24,13,44,19.10
2015,05,24,13,45,19.10
2015,05,24,13,46,19.00
2015,05,24,13,47,19.10
2015,05,24,13,48,19.10
2015,05,24,13,49,19.20
2015,05,24,13,50,19.30
2015,05,24,13,51,19.40
2015,05,24,13,52,19.60
2015,05,24,13,53,19.70
2015,05,24,13,54,19.80
2015,05,24,13,55,19.80
2015,05,24,13,56,19.80
2015,05,24,13,57,19.90
2015,05,24,13,58,19.90
2015,05,24,13,59,19.90
2015,05,24,14,00,19.90
2015,05,24,14,01,19.80
2015,05,24,14,02,19.80
2015,05,24,14,03,19.80
2015,05,24,14,04,19.80
2015,05,24,14,05,19.80
2015,05,24,14,06,19.80
2015,05,24,14,07,19.80
2015,05,24,14,08,19.80
2015,05,24,14,09,19.80
2015,05,24,14,10,19.80
2015,05,24,14,11,19.90
2015,05,24,14,12,20.00
2015,05,24,14,13,20.00
2015,05,24,14,14,20.00
2015,05,24,14,15,20.00
2015,05,24,14,16,20.00
2015,05,24,14,17,20.00
2015,05,24,14,18,20.10
2015,05,24,14,19,20.20
2015,05,24,14,20,20.20
2015,05,24,14,21,20.30
2015,05,24,14,22,20.20
2015,05,24,14,23,20.20
2015,05,24,14,24,20.30
2015,05,24,14,25,20.30
2015,05,24,14,26,20.20
2015,05,24,14,27,20.30
2015,05,24,14,28,20.40
2015,05,24,14,29,20.50
2015,05,24,14,30,20.50
2015,05,24,14,31,20.50
2015,05,24,14,32,20.60
2015,05,24,14,33,20.60
2015,05,24,14,34,20.60
2015,05,24,14,35,20.60
2015,05,24,14,36,20.60
2015,05,24,14,37,20.70
2015,05,24,14,38,20.60
2015,05,24,14,39,20.50
2015,05,24,14,40,20.40
2015,05,24,14,41,20.30
2015,05,24,14,42,20.30
2015,05,24,14,43,20.30
2015,05,24,14,44,20.40
2015,05,24,14,45,20.60
2015,05,24,14,46,20.70
2015,05,24,14,47,20.80
2015,05,24,14,48,20.80
2015,05,24,14,49,20.70
2015,05,24,14,50,20.50
2015,05,24,14,51,20.40
2015,05,24,14,52,20.30
2015,05,24,14,53,20.30
2015,05,24,14,54,20.40
2015,05,24,14,55,20.40
2015,05,24,14,56,20.40
2015,05,24,14,57,20.50
2015,05,24,14,58,20.50
2015,05,24,14,59,20.50
2015,05,24,15,00,20.50
2015,05,24,15,01,20.50
2015,05,24,15,02,20.50
2015,05,24,15,03,20.50
2015,05,24,15,04,20.50
2015,05,24,15,05,20.60
2015,05,24,15,06,20.60
2015,05,24,15,07,20.60
2015,05,24,15,08,20.60
2015,05,24,15,09,20.60
2015,05,24,15,10,20.60
2015,05,24,15,11,20.50
2015,05,24,15,12,20.40
2015,05,24,15,13,20.40
2015,05,24,15,14,20.50
2015,05,24,15,15,20.50
2015,05,24,15,16,20.60
2015,05,24,15,17,20.60
2015,05,24,15,18,20.60
2015,05,24,15,19,20.50
2015,05,24,15,20,20.50
2015,05,24,15,21,20.50
2015,05,24,15,22,20.50
2015,05,24,15,23,20.50
2015,05,24,15,24,20.60
2015,05,24,15,25,20.60
2015,05,24,15,26,20.70
2015,05,24,15,27,20.80
2015,05,24,15,28,20.80
2015,05,24,15,29,20.80
2015,05,24,15,30,20.90
2015,05,24,15,31,21.00
2015,05,24,15,32,21.10
2015,05,24,15,33,21.20
2015,05,24,15,34,21.20
2015,05,24,15,35,21.20
2015,05,24,15,36,21.20
2015,05,24,15,37,21.30
2015,05,24,15,38,21.40
2015,05,24,15,39,21.40
2015,05,24,15,40,21.40
2015,05,24,15,41,21.40
2015,05,24,15,42,21.40
2015,05,24,15,43,21.40
2015,05,24,15,44,21.40
2015,05,24,15,45,21.30
2015,05,24,15,46,21.30
2015,05,24,15,47,21.30
2015,05,24,15,48,21.30
2015,05,24,15,49,21.30
2015,05,24,15,50,21.20
2015,05,24,15,51,21.10
2015,05,24,15,52,21.00
2015,05,24,15,53,21.00
2015,05,24,15,54,21.00
2015,05,24,15,55,21.20
2015,05,24,15,56,21.30
2015,05,24,15,57,21.30
2015,05,24,15,58,21.30
2015,05,24,15,59,21.40
2015,05,24,16,00,21.40
2015,05,24,16,01,21.50
2015,05,24,16,02,21.60
2015,05,24,16,03,21.60
2015,05,24,16,04,21.60
2015,05,24,16,05,21.60
2015,05,24,16,06,21.50
2015,05,24,16,07,21.50
2015,05,24,16,08,21.50
2015,05,24,16,09,21.50
2015,05,24,16,10,21.50
2015,05,24,16,11,21.60
2015,05,24,16,12,21.60
2015,05,24,16,13,21.60
2015,05,24,16,14,21.60
2015,05,24,16,15,21.60
2015,05,24,16,16,21.70
2015,05,24,16,17,21.70
2015,05,24,16,18,21.80
2015,05,24,16,19,21.90
2015,05,24,16,20,22.00
2015,05,24,16,21,22.10
2015,05,24,16,22,22.20
2015,05,24,16,23,22.30
2015,05,24,16,24,22.30
2015,05,24,16,25,22.20
2015,05,24,16,26,22.10
2015,05,24,16,27,21.90
2015,05,24,16,28,21.80
2015,05,24,16,29,21.80
2015,05,24,16,30,21.80
2015,05,24,16,31,21.90
2015,05,24,16,32,22.00
2015,05,24,16,33,22.10
2015,05,24,16,34,22.20
2015,05,24,16,35,22.30
2015,05,24,16,36,22.20
2015,05,24,16,37,22.20
2015,05,24,16,38,22.20
2015,05,24,16,39,22.10
2015,05,24,16,40,22.10
2015,05,24,16,41,22.10
2015,05,24,16,42,22.10
2015,05,24,16,43,22.10
2015,05,24,16,44,22.00
2015,05,24,16,45,22.00
2015,05,24,16,46,22.00
2015,05,24,16,47,21.90
2015,05,24,16,48,21.80
2015,05,24,16,49,21.80
2015,05,24,16,50,21.70
2015,05,24,16,51,21.70
2015,05,24,16,52,21.70
2015,05,24,16,53,21.70
2015,05,24,16,54,21.70
2015,05,24,16,55,21.70
2015,05,24,16,56,21.60
2015,05,24,16,57,21.60
2015,05,24,16,58,21.50
2015,05,24,16,59,21.40
2015,05,24,17,00,21.40
2015,05,24,17,01,21.40
2015,05,24,17,02,21.40
2015,05,24,17,03,21.40
2015,05,24,17,04,21.30
2015,05,24,17,05,21.20
2015,05,24,17,06,21.20
2015,05,24,17,07,21.10
2015,05,24,17,08,21.10
2015,05,24,17,09,21.00
2015,05,24,17,10,21.00
2015,05,24,17,11,20.90
2015,05,24,17,12,20.80
2015,05,24,17,13,20.80
2015,05,24,17,14,20.70
2015,05,24,17,15,20.70
2015,05,24,17,16,20.60
2015,05,24,17,17,20.50
2015,05,24,17,18,20.40
2015,05,24,17,19,20.30
2015,05,24,17,20,20.20
2015,05,24,17,21,20.20
2015,05,24,17,22,20.20